Location: Beneden-Haastrecht
(52.0012°N, 4.7557°E)
Time: 11:11:10
(UTC+00:00)

X-37B - Pass Details

Date: 27 January 2021
Orbit: 383 x 391 km, 45.0° (Epoch: 27 February)

Event Time Altitude Azimuth Distance (km) Brightness Sun altitude
Rises 17:06:08 0° 249° (WSW) 2,270 7.2 -7.3°
Reaches altitude 10° 17:08:27 10° 235° (SW) 1,417 4.9 -7.6°
Maximum altitude 17:11:03 23° 180° (S) 872 2.6 -8.0°
Drops below altitude 10° 17:13:41 10° 125° (SE) 1,420 3.1 -8.3°
Enters shadow 17:14:50 - 116° (ESE) 1,831 3.6 -8.5°
